FW4441 Weather Reports


Display with metric or nautical units.
time (UTC)temp
F
wind
direction
speed
MPH
gust
MPH
rain 1hr
in
rain 24hr
in
rain mn
in
humidity
%
barometer
mb
20260503020034 73 295 0.0 1.0 0.00 0.00 0.00 60 1008.7
20260503010034 76 342 3.0 4.0 0.00 0.00 0.00 52 1008.6
20260503004530 77 343 4.0 5.0 0.00 0.00 0.00 52 1008.6
20260503001531 80 319 3.0 6.0 0.00 0.00 0.00 50 1008.6
20260503000034 82 309 3.0 6.0 0.00 0.00 0.00 47 1008.7
20260502233145 83 218 3.0 8.0 0.00 0.00 0.00 47 1009.1
20260502231608 82 314 2.0 5.0 0.00 0.00 0.00 51 1009.3
20260502224531 84 330 3.0 8.0 0.00 0.00 0.00 49 1009.7
20260502223031 84 302 4.0 9.0 0.00 0.00 0.00 50 1009.9
20260502221530 83 305 2.0 6.0 0.00 0.00 0.00 51 1010.2
20260502220033 79 208 0.0 4.0 0.00 0.00 0.00 54 1010.5
20260502214608 76 242 0.0 5.0 0.00 0.00 0.00 58 1010.7
20260502213031 76 206 3.0 8.0 0.00 0.00 0.00 59 1010.8
20260502211530 73 264 0.0 4.0 0.00 0.00 0.00 59 1011.1
20260502210030 75 210 0.0 3.0 0.00 0.00 0.00 58 1011.3
20260502204529 73 302 0.0 3.0 0.00 0.00 0.00 61 1011.3
20260502201530 67 20 2.0 7.0 0.00 0.00 0.00 71 1011.7
20260502200030 64 121 2.0 6.0 0.00 0.00 0.00 75 1012.0
20260502194607 62 262 5.0 9.0 0.00 0.00 0.00 75 1011.8
20260502193040 63 325 4.0 7.0 0.00 0.00 0.00 84 1012.3
20260502191529 66 328 5.0 11.0 0.00 0.00 0.00 69 1012.6
20260502183032 64 15 2.0 6.0 0.00 0.00 0.00 72 1013.1
20260502181606 64 22 0.0 3.0 0.00 0.00 0.00 73 1013.1
20260502163029 56 346 4.0 8.0 0.00 0.00 0.00 81 1013.4
20260502161531 56 340 4.0 9.0 0.00 0.00 0.00 81 1013.4
20260502151530 54 21 5.0 8.0 0.00 0.00 0.00 83 1013.1
20260502130106 52 17 1.0 4.0 0.00 0.00 0.00 84 1012.0
20260502123117 53 308 0.0 3.0 0.00 0.00 0.00 82 1011.9
20260502123109 54 292 2.0 5.0 0.00 0.00 0.00 81 1011.8
20260502111528 56 192 1.0 5.0 0.00 0.00 0.00 76 1011.9
20260502110038 57 323 4.0 7.0 0.00 0.00 0.00 75 1011.9
20260502104530 57 23 6.0 9.0 0.00 0.00 0.00 75 1012.3
20260502103033 57 38 5.0 8.0 0.00 0.00 0.00 75 1012.5
20260502091529 57 28 5.0 8.0 0.00 0.00 0.00 73 1012.9
20260502071531 58 31 2.0 5.0 0.00 0.00 0.00 69 1012.6
20260502064531 60 9 3.0 5.0 0.00 0.00 0.00 64 1012.7
20260502063030 61 23 5.0 8.0 0.00 0.00 0.00 64 1012.6
20260502061605 61 33 6.0 9.0 0.00 0.00 0.00 66 1012.6
20260502060030 60 20 5.0 8.0 0.00 0.00 0.00 66 1012.6
20260502054530 61 26 4.0 7.0 0.00 0.00 0.00 64 1012.3
20260502053030 62 17 0.0 3.0 0.00 0.00 0.00 62 1012.5
20260502051531 62 339 2.0 7.0 0.00 0.00 0.00 61 1012.2
20260502050030 63 7 6.0 11.0 0.00 0.00 0.00 61 1012.0
20260502044531 63 12 6.0 10.0 0.00 0.00 0.00 61 1012.0
20260502043030 63 3 5.0 8.0 0.00 0.00 0.00 60 1011.9
20260502041530 65 19 5.0 9.0 0.00 0.00 0.00 58 1011.6
20260502040107 66 342 6.0 13.0 0.00 0.00 0.00 56 1011.2
20260502034607 66 32 8.0 11.0 0.00 0.00 0.00 56 1011.3
20260502033032 66 43 6.0 10.0 0.00 0.00 0.00 55 1011.3
20260502031532 67 53 5.0 9.0 0.00 0.00 0.00 55 1011.2
20260502024607 68 336 7.0 14.0 0.00 0.00 0.00 52 1010.5
20260502023031 69 349 6.0 12.0 0.00 0.00 0.00 51 1010.1
20260502021531 70 344 6.0 11.0 0.00 0.00 0.00 49 1010.1